Temperature
15 16 16 16 17 17 17 17 17 17 17 16 16 16 15 14 14 14 14 14 14 14 14 13 13 13 12 12 13 13 13 13 13 13 14 15 15 16 16 16 15 15 15
15 17 16 17 17 17 18 18 17 17 17 17 16 15 15 14 14 14 13 13 13 13 13 13 12 12 12 12 13 13 13 13 13 13 14 15 15 15 16 16 15 15 15
17 18 18 17 17 18 17 17 17 16 16 16 16 16 15 14 14 13 13 13 13 13 13 13 12 12 12 12 12 13 13 13 13 13 14 14 14 15 15 16 16 15 15
17 17 18 17 17 17 16 16 16 16 15 15 15 15 15 15 14 14 14 13 13 13 13 13 12 12 13 12 12 13 13 13 13 13 13 13 13 14 14 15 15 15 15
16 16 17 17 17 16 17 16 16 15 14 14 14 14 15 15 15 14 14 14 14 13 13 13 13 12 12 12 12 12 12 12 12 13 13 13 13 13 14 14 15 15 15
16 17 17 17 17 16 16 15 15 15 14 14 14 14 15 15 15 15 14 14 14 14 13 13 13 13 12 12 12 12 12 12 12 12 12 12 12 12 13 13 14 14 14
16 16 16 16 16 15 14 14 14 14 14 14 14 14 15 15 15 15 14 14 14 14 13 13 13 13 13 13 12 12 12 12 12 12 12 12 12 12 12 12 13 13 14
14 14 15 15 14 13 13 13 13 13 13 13 14 14 14 14 15 14 14 14 14 14 13 13 13 13 13 13 13 13 12 12 12 11 11 11 11 11 12 12 12 12 12
12 12 12 12 12 12 12 12 12 12 12 12 13 13 13 13 13 13 14 14 14 14 14 13 13 13 13 13 13 13 12 12 12 12 12 11 11 11 12 12 12 12 12
12 12 12 12 11 11 11 11 11 11 11 11 12 12 12 12 12 13 13 13 13 13 13 13 13 13 13 12 13 13 13 13 13 12 12 12 12 12 12 12 12 12 12
12 12 12 12 11 11 11 11 12 11 11 11 11 11 12 12 12 12 12 12 12 12 12 12 12 12 13 13 13 13 13 13 13 13 13 13 12 12 12 12 12 12 12
12 12 12 12 11 11 11 11 11 11 11 11 11 11 11 11 12 11 11 11 11 11 12 12 12 12 12 12 12 13 13 13 13 13 13 13 12 12 12 12 11 11 11
12 11 11 11 11 11 11 11 11 11 11 11 11 12 12 11 11 11 11 11 11 11 11 11 11 12 12 12 12 12 12 13 13 13 13 12 12 12 12 11 11 11 11
12 11 11 11 11 11 11 11 11 11 10 10 11 11 11 11 11 10 9 9 9 10 10 11 11 11 11 12 11 12 12 12 12 12 11 11 11 11 11 11 11 10 10
12 12 11 11 10 11 11 11 11 10 10 10 10 10 10 10 10 9 9 9 9 9 10 10 11 11 11 11 11 11 11 11 11 10 10 10 10 10 10 10 10 10 10
13 12 11 11 11 11 11 11 11 10 10 10 10 10 10 10 10 9 9 9 9 9 9 10 10 11 10 10 10 10 10 10 10 10 10 10 10 10 10 10 10 10 10
13 12 11 11 11 11 11 11 10 10 10 9 9 9 10 10 10 10 9 9 9 9 9 9 10 10 10 10 10 10 10 10 10 10 10 10 10 10 10 10 10 10 10
13 13 12 11 11 11 11 10 10 9 9 9 9 9 9 9 10 10 9 9 9 9 9 9 9 9 10 10 10 10 10 10 10 10 10 10 10 9 9 9 9 9 9
14 13 12 11 11 11 10 10 10 9 9 9 9 9 10 9 9 9 9 9 8 9 9 9 9 9 9 9 9 9 9 9 9 9 9 9 8 8 9 9 9 9 8
14 13 12 12 11 11 10 10 10 10 10 9 9 9 9 9 9 9 9 8 8 8 8 8 8 8 8 9 9 9 9 9 9 9 8 8 8 8 9 9 8 8 8
14 13 12 12 11 11 11 10 10 10 10 10 9 9 9 9 8 8 8 8 8 8 8 8 7 8 7 8 8 8 8 8 8 8 8 8 8 8 8 8 8 8 8
14 13 12 11 11 11 11 10 10 10 10 9 9 8 8 8 7 7 7 7 7 7 7 7 7 7 7 7 7 7 7 7 7 7 7 7 7 8 8 8 8 7 7
14 13 12 11 11 11 11 11 10 10 10 9 9 9 8 8 7 7 7 7 7 7 6 6 7 7 7 7 7 7 8 8 7 7 7 7 7 7 7 7 7 6 6
13 13 12 11 11 11 11 11 11 10 10 9 9 9 8 8 8 7 7 6 6 6 6 7 7 7 7 7 7 7 7 7 7 7 7 7 7 7 7 6 5 5 4
13 12 12 11 11 11 11 11 11 11 10 10 9 9 8 8 8 7 7 7 6 6 7 7 7 7 8 8 8 8 7 7 6 6 6 6 6 6 5 4 4 3 4
13 12 12 12 12 12 11 11 11 11 10 10 9 9 8 8 7 7 7 7 7 7 8 8 8 8 8 8 8 8 8 8 8 7 7 6 5 5 5 4 4 4 4
Wind_Speed
10 13 12 5 5 4 3 2 3 5 5 5 6 4 4 5 5 4 2 2 2 2 1 2 4 3 4 5 6 7 9 8 9 6 3 3 4 5 6 9 11 11 13
9 10 9 7 6 5 5 2 3 4 5 7 7 7 7 7 6 6 5 4 3 3 1 2 5 5 6 7 7 9 9 9 9 8 5 4 4 3 3 5 6 9 12
11 8 5 5 3 2 2 3 1 2 4 4 4 7 8 8 8 7 7 5 3 3 2 2 5 5 5 5 6 7 8 8 8 7 6 4 3 1 2 2 3 5 9
6 4 6 4 5 6 4 3 3 2 3 4 5 6 6 5 6 7 8 8 6 5 4 3 3 2 4 5 4 5 6 7 7 7 5 4 3 1 1 2 4 5 6
4 6 5 5 6 7 4 4 5 4 2 3 4 4 3 4 5 7 8 9 8 7 5 3 1 1 3 3 2 1 1 2 3 3 3 3 3 3 3 3 5 3 6
3 4 6 5 4 3 5 6 5 4 2 3 5 4 3 3 3 4 7 7 7 7 6 4 3 2 3 4 5 5 5 5 4 2 3 5 5 4 3 4 4 4 4
9 8 6 4 5 6 6 7 7 6 5 5 5 4 4 5 7 5 4 6 6 6 6 6 4 4 5 5 5 6 5 7 5 3 3 4 3 4 4 4 5 5 4
9 10 10 11 10 9 9 9 8 7 7 6 5 4 4 7 12 9 5 2 4 5 6 6 5 4 4 5 4 5 5 5 6 6 6 6 4 3 3 4 5 4 2
7 7 7 7 8 9 8 8 7 6 7 7 6 6 6 8 13 10 6 4 1 1 3 4 4 4 6 7 6 5 6 7 8 12 13 12 11 9 7 5 4 4 3
7 7 7 8 8 7 6 5 5 5 6 6 7 8 8 8 13 14 10 5 4 2 2 3 4 5 9 6 6 6 7 7 6 6 8 10 9 7 6 6 5 4 3
6 6 6 5 5 5 6 5 6 6 7 7 7 7 7 8 10 15 14 6 4 4 4 4 4 7 8 7 6 7 8 4 3 3 3 2 1 1 1 2 1 2 2
2 4 5 6 5 4 6 5 6 6 7 7 7 7 6 7 11 13 15 13 10 5 5 5 5 7 7 7 5 7 9 5 3 2 2 1 1 1 1 1 1 1 2
2 3 3 4 4 4 5 5 5 5 6 6 7 7 8 7 8 12 13 13 13 7 5 7 9 10 8 6 5 7 7 5 4 2 1 1 1 2 2 1 1 1 1
1 0 2 3 4 4 4 4 4 5 5 6 5 6 6 7 7 6 6 6 7 7 6 6 7 8 5 4 3 5 5 4 3 2 2 2 2 1 1 1 1 1 1
2 0 2 2 3 2 3 3 2 3 3 2 3 3 4 5 7 9 7 7 8 9 5 2 3 1 1 2 3 4 3 4 3 3 3 3 2 1 1 1 1 1 2
1 1 1 2 3 2 2 2 2 2 3 3 5 6 5 7 12 13 12 15 20 14 2 1 1 2 3 3 3 3 3 3 3 4 4 3 2 2 1 0 1 2 2
2 2 1 2 3 3 3 3 3 2 2 3 6 8 8 10 12 11 10 11 12 11 5 4 3 3 5 5 4 4 3 3 3 4 4 4 4 3 3 3 2 2 3
3 3 3 2 2 2 3 3 3 3 3 4 5 6 8 11 14 15 13 8 8 8 7 8 7 8 7 6 5 5 5 5 4 5 5 4 4 4 3 3 3 3 3
4 4 3 3 3 3 3 4 4 4 4 4 4 6 8 9 12 15 14 8 6 7 8 8 8 8 7 7 6 6 6 6 5 5 4 3 3 3 3 3 4 5 4
5 6 5 4 3 4 3 3 4 4 4 4 5 5 6 7 8 8 8 7 6 6 7 7 8 7 7 6 6 6 6 6 6 5 4 3 3 3 3 4 4 5 5
5 5 6 4 3 3 3 3 3 3 4 4 4 4 6 5 5 5 6 6 6 7 7 7 7 7 7 7 7 7 7 6 6 6 5 5 4 3 3 4 4 4 5
6 6 5 4 3 3 4 3 2 3 3 3 2 4 7 5 5 5 5 5 6 6 6 6 6 7 6 6 6 5 5 5 5 6 6 5 4 3 3 4 4 5 5
6 6 6 4 3 4 4 3 2 3 2 2 2 2 3 3 3 4 4 4 5 5 6 7 6 6 6 7 7 5 4 4 4 3 4 4 4 4 3 4 5 5 5
5 6 6 5 4 3 3 3 3 3 3 2 1 0 1 2 3 3 3 4 4 5 7 7 6 6 7 7 8 8 8 6 4 3 3 3 3 4 5 4 5 5 6
4 5 5 5 5 4 4 4 3 2 2 2 1 1 2 3 3 3 3 3 5 5 5 7 8 8 8 9 9 10 12 12 11 10 8 5 6 5 5 5 5 5 5
4 5 4 4 4 5 5 4 4 3 2 1 1 1 3 3 3 3 3 3 4 4 4 6 8 9 9 9 10 11 11 12 12 11 10 7 5 5 5 5 6 5 5
Wind_Direction
95 83 77 80 128 159 186 215 228 211 182 181 191 168 174 199 202 189 208 201 207 237 265 268 265 229 207 205 201 204 213 206 230 240 218 223 190 194 205 206 209 207 212
101 111 138 178 165 190 205 201 284 268 212 204 186 174 184 192 192 191 184 194 199 212 231 276 281 267 240 219 210 210 215 209 216 237 223 207 212 185 180 188 205 211 214
138 142 194 229 221 272 337 38 9 306 273 251 212 199 191 186 185 195 184 173 196 237 242 258 281 281 270 248 229 224 217 209 207 223 225 198 203 148 130 149 196 216 220
110 182 207 235 297 323 30 36 25 27 351 296 251 235 224 209 195 184 182 169 185 212 239 270 281 272 275 267 250 238 219 209 201 209 201 183 192 179 168 197 218 215 218
344 303 334 346 324 331 31 27 23 37 23 296 274 244 244 233 214 192 177 175 180 191 209 240 306 337 304 291 286 279 214 201 200 202 181 169 176 178 210 201 217 201 218
33 323 332 340 345 3 14 12 8 7 317 266 267 278 290 278 262 219 186 179 183 188 199 214 227 231 253 276 281 272 238 203 187 197 212 222 210 201 205 195 186 174 213
34 24 7 1 22 22 11 1 4 358 345 344 343 328 326 6 6 5 186 184 189 200 202 206 212 220 228 252 276 281 247 219 199 186 211 236 235 214 202 202 200 191 197
31 28 25 34 37 33 32 27 19 10 6 358 6 16 16 12 7 7 9 150 184 207 211 216 215 226 234 226 232 253 256 239 217 208 220 236 229 215 220 219 202 196 196
38 38 38 46 50 41 35 27 14 16 26 27 31 35 37 24 16 24 57 54 35 288 238 225 226 247 252 226 207 228 248 247 238 238 235 236 235 232 228 224 203 193 206
21 26 25 33 42 35 27 28 14 20 22 28 37 31 38 32 31 38 45 33 19 6 295 275 266 267 277 254 214 211 234 244 225 238 252 254 246 241 248 241 221 195 176
9 22 19 29 44 33 33 30 24 23 25 27 33 25 27 25 25 28 25 18 351 324 298 282 275 274 274 282 257 217 217 220 224 215 246 249 202 146 0 319 243 175 166
19 41 26 22 26 32 48 39 34 32 29 19 12 4 5 10 14 12 7 1 346 319 294 291 291 292 286 277 264 221 208 190 150 150 124 91 111 138 177 234 242 262 243
31 36 20 12 19 30 42 35 33 34 33 21 11 3 359 358 354 0 4 357 347 332 304 301 301 301 292 272 236 193 169 151 142 149 156 122 123 139 113 74 41 35 12
162 349 3 3 6 28 39 41 43 25 23 19 6 4 1 355 347 342 2 1 351 342 324 303 294 296 270 197 144 133 134 142 147 148 135 109 97 89 66 53 29 0 308
161 220 350 355 350 19 80 58 52 40 23 350 343 341 348 340 331 331 334 338 332 310 294 302 308 305 161 130 119 122 128 137 132 126 119 114 112 121 348 5 358 325 302
178 103 10 351 357 3 67 97 76 45 15 15 14 6 335 320 321 324 338 337 333 343 26 50 345 197 137 106 113 112 98 93 81 83 84 80 63 46 3 328 297 295 296
193 154 124 44 40 16 38 54 44 8 326 330 345 341 337 336 342 344 348 339 351 3 34 38 27 67 80 76 77 90 91 82 86 85 80 64 52 40 25 22 14 352 340
186 154 142 113 81 52 52 60 52 29 0 337 340 342 354 19 25 24 19 23 25 20 32 38 38 52 56 56 54 64 74 71 66 66 62 54 43 34 23 10 353 332 309
174 161 151 126 105 95 69 61 54 44 33 5 352 349 357 24 31 29 28 37 31 25 31 39 40 48 53 54 52 58 65 66 67 67 65 63 54 46 19 351 333 318 310
168 159 147 127 113 98 77 66 54 48 45 37 25 4 354 27 35 32 33 25 25 28 31 37 40 42 44 50 53 57 62 59 56 50 40 36 37 37 14 353 352 348 341
150 147 138 124 122 117 106 86 70 58 58 64 36 23 41 54 45 35 38 30 25 27 37 40 37 36 35 34 35 39 44 45 38 25 14 4 4 11 1 351 344 340 335
143 140 132 131 140 135 127 121 104 84 74 83 49 31 47 47 37 39 40 41 41 36 31 36 40 34 29 26 25 26 31 35 30 18 359 346 344 355 3 5 4 360 5
142 141 136 142 158 151 135 136 142 129 114 85 69 49 34 46 48 47 50 48 47 43 38 37 36 29 20 17 17 15 13 9 358 342 327 330 352 12 20 20 13 7 5
157 155 152 156 161 159 150 151 170 163 150 151 149 135 76 75 70 61 52 59 55 48 39 32 32 23 12 11 16 24 25 16 353 327 324 355 31 37 41 30 12 10 10
170 173 169 164 154 150 151 164 194 210 205 192 182 126 115 109 98 85 66 61 58 49 37 34 32 23 17 25 30 33 37 40 45 48 48 45 47 43 39 26 12 19 18
181 176 182 181 167 166 173 181 194 202 207 211 195 125 114 122 122 111 100 80 70 57 42 36 33 29 24 28 32 39 42 39 37 42 50 52 47 42 39 35 31 32 30
Height
1495 1493 1496 1501 1506 1508 1505 1503 1502 1504 1505 1507 1509 1510 1512 1514 1513 1513 1513 1512 1513 1514 1513 1513 1513 1514 1514 1516 1518 1520 1522 1524 1526 1527 1530 1533 1536 1537 1537 1538 1539 1540 1541
1493 1494 1496 1501 1504 1504 1502 1500 1502 1503 1505 1506 1505 1507 1510 1512 1512 1511 1511 1512 1512 1512 1511 1510 1509 1509 1509 1510 1511 1513 1516 1518 1520 1521 1525 1528 1530 1531 1532 1533 1534 1536 1537
1494 1495 1495 1498 1501 1501 1499 1497 1499 1502 1504 1504 1504 1506 1508 1509 1509 1509 1509 1510 1511 1512 1510 1507 1505 1505 1506 1507 1507 1508 1510 1512 1515 1517 1518 1521 1524 1525 1526 1527 1529 1531 1532
1491 1492 1491 1494 1497 1498 1497 1499 1498 1498 1499 1501 1503 1505 1506 1507 1506 1506 1506 1507 1508 1509 1509 1505 1503 1504 1505 1505 1505 1505 1506 1507 1509 1512 1514 1516 1518 1519 1521 1522 1524 1526 1527
1490 1491 1492 1494 1495 1497 1499 1500 1497 1495 1497 1498 1500 1501 1502 1504 1503 1502 1503 1505 1505 1507 1507 1506 1504 1504 1506 1505 1504 1504 1503 1504 1505 1507 1509 1511 1512 1514 1516 1518 1520 1521 1521
1491 1492 1494 1494 1494 1497 1498 1497 1496 1495 1496 1498 1497 1497 1498 1500 1500 1499 1500 1501 1503 1505 1506 1505 1504 1503 1504 1504 1503 1502 1502 1502 1503 1505 1506 1507 1508 1509 1511 1512 1513 1514 1516
1495 1495 1495 1494 1494 1495 1496 1495 1495 1495 1495 1495 1495 1495 1496 1495 1496 1496 1496 1498 1500 1502 1503 1503 1503 1503 1503 1503 1502 1502 1501 1501 1501 1501 1502 1503 1504 1505 1506 1507 1508 1509 1511
1499 1497 1495 1494 1493 1495 1496 1495 1494 1493 1493 1492 1492 1492 1492 1492 1492 1492 1493 1495 1496 1498 1499 1500 1500 1500 1500 1501 1501 1501 1501 1501 1500 1501 1501 1502 1503 1503 1504 1504 1504 1504 1506
1504 1502 1500 1498 1496 1496 1497 1496 1495 1493 1492 1491 1490 1489 1489 1489 1489 1489 1490 1491 1493 1494 1495 1496 1497 1498 1498 1498 1498 1499 1500 1500 1499 1499 1499 1500 1501 1501 1501 1501 1500 1502 1502
1504 1502 1501 1501 1500 1502 1501 1499 1497 1495 1494 1492 1491 1490 1490 1489 1488 1488 1488 1489 1490 1490 1491 1491 1492 1494 1495 1495 1495 1496 1497 1497 1497 1497 1497 1498 1498 1498 1499 1498 1498 1499 1500
1510 1509 1508 1506 1506 1505 1503 1500 1499 1497 1496 1494 1492 1492 1491 1490 1489 1488 1487 1486 1486 1486 1486 1486 1488 1488 1490 1491 1492 1493 1494 1495 1495 1495 1495 1496 1495 1495 1496 1496 1494 1496 1498
1515 1513 1510 1508 1507 1506 1504 1503 1501 1499 1497 1495 1494 1494 1493 1492 1490 1487 1485 1484 1482 1482 1481 1481 1482 1484 1485 1486 1488 1490 1492 1493 1493 1493 1494 1494 1494 1495 1494 1495 1494 1494 1496
1517 1515 1512 1510 1509 1508 1506 1504 1502 1499 1497 1496 1495 1495 1494 1493 1490 1487 1483 1481 1480 1479 1478 1477 1477 1478 1479 1481 1483 1485 1488 1490 1491 1492 1492 1493 1494 1494 1494 1494 1494 1495 1495
1517 1515 1513 1511 1509 1508 1506 1504 1502 1500 1498 1496 1496 1495 1495 1493 1490 1485 1482 1480 1478 1476 1474 1473 1473 1473 1475 1476 1479 1481 1485 1487 1489 1490 1491 1492 1493 1494 1494 1494 1495 1495 1495
1517 1514 1512 1510 1509 1507 1506 1504 1502 1501 1500 1499 1498 1497 1496 1494 1491 1487 1483 1481 1476 1471 1468 1468 1469 1470 1471 1473 1476 1479 1482 1485 1487 1488 1490 1492 1492 1493 1494 1494 1494 1494 1494
1516 1514 1512 1510 1509 1508 1506 1505 1503 1502 1501 1501 1500 1499 1497 1496 1493 1490 1486 1481 1475 1469 1467 1468 1468 1469 1470 1473 1475 1478 1481 1484 1487 1488 1490 1491 1492 1492 1493 1493 1493 1493 1492
1516 1514 1512 1511 1510 1509 1507 1505 1504 1503 1503 1503 1502 1501 1499 1497 1494 1490 1486 1482 1479 1474 1471 1470 1471 1471 1473 1475 1477 1480 1482 1484 1486 1488 1490 1491 1492 1492 1493 1493 1492 1491 1489
1516 1514 1513 1512 1511 1510 1508 1506 1504 1503 1502 1502 1502 1502 1500 1498 1495 1492 1489 1486 1483 1479 1476 1475 1475 1476 1476 1477 1479 1482 1484 1485 1487 1489 1490 1491 1491 1491 1491 1490 1489 1488 1487
1515 1514 1513 1512 1512 1511 1510 1508 1506 1504 1502 1502 1503 1503 1501 1499 1497 1495 1492 1488 1486 1483 1482 1481 1480 1480 1480 1481 1483 1485 1486 1487 1488 1489 1490 1490 1489 1489 1488 1487 1486 1485 1483
1514 1513 1513 1512 1512 1512 1511 1509 1508 1506 1504 1504 1504 1504 1502 1501 1498 1496 1493 1491 1490 1488 1487 1486 1485 1485 1485 1485 1486 1487 1487 1488 1489 1489 1489 1489 1488 1488 1487 1486 1484 1483 1480
1512 1512 1512 1512 1512 1512 1512 1511 1510 1508 1507 1506 1506 1505 1504 1502 1499 1497 1496 1495 1494 1493 1492 1491 1490 1489 1489 1488 1488 1488 1488 1488 1489 1489 1489 1488 1487 1487 1485 1484 1481 1479 1477
1511 1511 1511 1512 1512 1513 1513 1513 1512 1511 1510 1509 1508 1507 1506 1504 1501 1499 1499 1498 1497 1496 1495 1494 1492 1491 1490 1489 1489 1488 1488 1487 1487 1487 1487 1487 1486 1484 1483 1480 1478 1476 1473
1510 1509 1510 1511 1512 1512 1513 1513 1512 1512 1511 1510 1509 1509 1508 1506 1505 1503 1501 1500 1499 1498 1497 1495 1494 1492 1490 1489 1487 1486 1485 1485 1485 1485 1485 1485 1483 1482 1480 1478 1475 1473 1471
1510 1509 1509 1510 1511 1512 1513 1513 1513 1512 1512 1511 1511 1510 1510 1508 1507 1506 1504 1502 1501 1499 1498 1496 1494 1492 1490 1488 1487 1485 1484 1484 1483 1483 1483 1482 1481 1479 1477 1475 1472 1471 1469
1510 1510 1509 1509 1510 1511 1512 1513 1513 1512 1512 1512 1511 1511 1510 1509 1508 1507 1505 1504 1502 1500 1499 1497 1495 1493 1492 1489 1488 1487 1486 1484 1483 1482 1481 1480 1478 1476 1474 1472 1471 1469 1466
1509 1509 1509 1508 1509 1510 1511 1512 1512 1512 1512 1511 1511 1510 1509 1509 1508 1507 1506 1504 1502 1501 1499 1498 1496 1495 1493 1491 1490 1488 1487 1485 1482 1480 1478 1477 1476 1475 1473 1472 1470 1469 1468